Regional Weather Roundup
Issued by NWS Wakefield, VA

Home | Current Version | Previous Version | Graphics & Text | Print | Product List | Glossary On
Versions: 1 2 3 4 5 6 7 8 9 10 11 12 13 14 15 16 17 18 19 20 21 22 23 24 25 26 27 28 29
000
ASUS41 KAKQ 241910
RWRAKQ

REGIONAL WEATHER ROUNDUP
NATIONAL WEATHER SERVICE WAKEFIELD VA
300 PM EDT FRI OCT 24 2014

Note: "fair" indicates few or no clouds below 12,000 feet with no
significant weather and/or obstructions to visibility. * = Denotes
station may not report precipitation (e.g., rain,snow,etc.),
thunder or fog.

VAZ042-051-052>054-056-242000-
NORTHERN VIRGINIA

CITY           SKY/WX    TMP DP  RH WIND       PRES   REMARKS
WASH NATIONAL  CLOUDY    70  39  32 NW14G24   29.91F
DULLES         PTSUNNY   66  38  35 NW12      29.92F
FORT BELVOIR   MOSUNNY   68  39  33 NW15      29.91F
QUANTICO       PTSUNNY   68  39  34 NW15G22   29.93F
FREDERICKSBRG* PTSUNNY   66  44  45 W8        29.93S
STAFFORD*      PTSUNNY   66  38  34 NW14      29.97S
WARRENTON      MOSUNNY   69  47  45 NW10      29.92F
CULPEPER*      PTSUNNY   68  37  32 NW5       29.94F
MANASSAS*      MOSUNNY   66  41  39 NW12      29.93S
LEESBURG*      MOSUNNY   66  41  39 N12G20    29.93F
WINCHESTER     MOSUNNY   66  30  26 NW14      29.95S
FRONT ROYAL*   PTCLDY    66  36  32 CALM      29.93F
LURAY*         PTCLDY    66  41  39 S3        29.95F
$$

VAZ048-049-060>072-079>083-242000-
CENTRAL AND SOUTH CENTRAL VIRGINIA...AND NORTH CENTRAL NORTH CAROLINA

CITY           SKY/WX    TMP DP  RH WIND       PRES   REMARKS
RICHMOND       PTSUNNY   70  41  34 NW10      29.93F
CHESTERFIELD*    N/A    N/A N/A N/A MISG        N/A
PETERSBURG*    SUNNY     68  38  33 W7        29.96S
HANOVER        MOSUNNY   66  39  37 W12G17    29.95F
TAPPAHANNOCK*  MOSUNNY   69  33  25 W8        29.93S
CHARLOTTSVILLE MOSUNNY   68  38  33 CALM      29.95F
ORANGE*        PTSUNNY   68  41  37 CALM      29.95F
LOUISA*        PTSUNNY   70  43  37 NW7       29.93F
FARMVILLE*     SUNNY     70  37  30 W3        29.93F
CREWE*         PTCLDY    69  38  32 W3        29.95F
FORT PICKETT*  PTCLDY    68  42  38 SW8       29.96F
LUNENBURG*     PTCLDY    68  46  45 CALM      29.96F
SOUTH HILL*    MOSUNNY   72  43  35 S6        30.01F
LAWRENCEVILLE* PTCLDY    68  45  43 CALM      29.96S
ROANOKE RAPIDS PTCLDY    68  41  37 N5        29.95F
RALEIGH        PTSUNNY   68  44  42 SW6       29.98F
$$

VAZ088>098-242000-
SOUTHEAST VIRGINIA

CITY           SKY/WX    TMP DP  RH WIND       PRES   REMARKS
NORFOLK        MOSUNNY   66  45  46 W7        29.92F
VIRGINIA BEACH MOSUNNY   69  48  47 NW7       29.90F
NORFOLK NAVAL  PTSUNNY   69  47  45 W13       29.93F
WEST POINT*    SUNNY     69  39  33 NW10      29.93F
NEWPORT NEWS   LGT RAIN  70  46  42 W13G21    29.92F
LANGLEY AFB    SUNNY     69  49  49 N6        29.91F
FORT EUSTIS    SUNNY     67  45  43 W12       29.91F
WILLIAMSBURG*  SUNNY     73  46  38 NW10      29.93F
HR EXEC AP*    PTCLDY    68  50  52 NW6       29.94F
FRANKLIN*      SUNNY     70  43  37 NW7       29.94S
WAKEFIELD      SUNNY     70  42  36 NW9       29.94F
$$

VAZ020-022-025-037-045-242000-
WEST CENTRAL AND SOUTHWEST VIRGINIA

CITY           SKY/WX    TMP DP  RH WIND       PRES   REMARKS
STAUNTON*      MOSUNNY   66  40  38 CALM      29.98F
HOT SPRINGS VA MOSUNNY   55  37  50 W10G16    30.01F
LYNCHBURG      SUNNY     67  38  34 SW6       29.98F
DANVILLE       MOSUNNY   69  43  38 W3        29.97F HAZE
SOUTH BOSTON*  NOT AVBL
MARTINSVILLE   PTSUNNY   68  41  37 N5        30.01F
ROANOKE        PTSUNNY   68  40  35 W6        30.00F
BLACKSBURG     MOSUNNY   64  45  48 W6        30.03F
DUBLIN*        MOSUNNY   64  37  37 CALM      30.03F
MARION*        PTSUNNY   64  41  43 SW8       30.06F
HILLSVILLE*    SUNNY     59  39  47 N5        30.04S
RICHLANDS*     PTCLDY    60   8  13 CALM      30.07F
WISE*          MOSUNNY   59  39  47 N6        30.09S
ABINGDON*      MOSUNNY   62  42  48 CALM      30.06F
$$

MDZ021>025-VAZ099-100-242000-
SOUTHERN MARYLAND AND THE DELMARVA PENINSULA

CITY           SKY/WX    TMP DP  RH WIND       PRES   REMARKS
PATUXENT RIVER PTSUNNY   66  44  45 NW13      29.88F
BAY BRIDGE APT   N/A     66  43  42 W7        29.87F
LEONARDTOWN    MOSUNNY   63  41  45 W9        29.91S
DOVER          MOSUNNY   67  47  48 NW12      29.82S
GEORGETOWN     SUNNY     68  45  43 N8        29.85S
EASTON         SUNNY     68  46  45 NW12G23   29.90F
CAMBRIDGE      SUNNY     66  43  42 NW10G20   29.87F
SALISBURY      SUNNY     69  46  43 W12G20    29.86S
OCEAN CITY     SUNNY     67  47  48 NW13      29.85R
WALLOPS ISLAND MOSUNNY   67  48  50 NW16G24   29.86F
ACCOMACK*      SUNNY     64  45  48 NW14G20   29.89S
$$

NCZ012>017-030>032-242000-
EASTERN NORTH CAROLINA

CITY           SKY/WX    TMP DP  RH WIND       PRES   REMARKS
ELIZABETH CITY MOSUNNY   71  48  43 NW10      29.92F
AHOSKIE*       SUNNY     67  42  41 N3        29.95F
EDENTON*       MOSUNNY   69  47  45 W8G16     29.94S
CURRITUCK*     MOSUNNY   67  45  44 NW7       29.93F
KILL DEVIL HLS MOSUNNY   65  48  55 W8        29.91F
MANTEO         MOSUNNY   64  48  56 NW9       29.93F
CAPE HATTERAS  MOSUNNY   65  49  56 NW6       29.94F
TARBORO*       CLEAR     71  42  33 CALM      29.96F
GOLDSBORO      SUNNY     71  49  46 NW7       29.95F
WASHINGTON     SUNNY     69  45  42 W7        29.95F
GREENVILLE     SUNNY     70  45  40 W3        29.98F
NEW BERN       SUNNY     72  46  39 NW8       29.97F
WILMINGTON     MOSUNNY   69  46  43 CALM      29.98F
$$

VAZ048-242000-
ELSEWHERE

CITY           SKY/WX    TMP DP  RH WIND       PRES   REMARKS
HARRISBURG PA  PTSUNNY   64  36  35 NW16      29.86F
BALTIMORE      NOT AVBL
ANNAPOLIS      MOSUNNY   66  43  43 NW12G17   29.87F
ANDREWS AFB    SUNNY     66  40  38 NW15G21   29.89F
WILMINGTON DE  MOSUNNY   67  44  43 NW15      29.84F
PHILADELPHIA   MOSUNNY   68  44  42 NW15G24   29.81F
WILDWOOD NJ*   MOSUNNY   64  46  52 W12G21    29.82F
ATLANTIC CITY  SUNNY     68  46  45 NW17G26   29.79F
HENDERSON NC   MOSUNNY  N/A N/A N/A SW7       29.97F
GREENSBORO     PTSUNNY   66  40  38 NW3       29.98F
ROCKY MOUNT    SUNNY     69  46  43 W5        29.96F
FAYETTEVILLE   SUNNY     69  44  40 CALM      29.97F
CHARLOTTE      PTSUNNY   68  39  34 W6        30.02S
$$

VAZ100-242000-
MARINE

STATION/POSITION TIME  TEMP    WIND        PRES    WAVE   SWELL
                       AIR SEA DIR/SP/G            HT/PER HT/PER
                 (UTC) (F)     (DEG/KT/KT) (MB)    (FT/S) (FT/S)
44066 TX TWR #4  1900   57 66  320/ 21/ 23 1007.1F   6/ 6   2/10
CAPE MAY NJ      1900   63 63  310/ 15/ 21 1009.3S
LEWES DE         1900   63 58  320/ 15/ 17 1009.8S
15NM E FENWICK I 1900   63 64  310/ 17/ 21 1009.8F   5/ 7   2/ 9
OCEAN-CITY-INLET 1900   65 62  320/ 13/ 18 1010.1R
WACHAPREAGUE VA  1900   65 60  280/  5/ 12 1011.9R
THOMAS POINT MD  1900   63 62  300/ 12/ 13 1012.6F
GOOSES REEF MD   1900   64     330/ 10/ 12 1012.5F
COVE POINT MD    1900   64     350/ 13/ 15 1011.6F
SOLOMONS ISLAND  1900      64                N/A
BISHOPS HEAD MD  1900   63 58  310/ 12/ 14 1011.3F
PINEY POINT MD   1900          310/ 19/ 21   N/A
POTOMAC MD       1900   62     300/ 19/ 23 1011.4F
CAMBRIDGE MD     1900   64 60  290/  9/ 16 1011.4S
LEWISETTA VA     1900   64 60  320/ 10/ 12 1012.1F
RAPPAHANNOCK LGT 1900          300/ 14/ 16 1012.9S
STINGRAY PT      1900   62     300/ 17/ 19 1013.1R
YORK RVR RNG VA  1900   65     330/ 13/ 16 1012.3F
YORKTOWN VA      1900   64 65  310/ 12/ 13 1012.7F
JAMESTOWN VA     1900   66     320/ 10/ 12   N/A
DOMINION TERM VA 1900   63     320/ 11/ 14 1013.2F
KIPTOPEKE VA     1900      65  300/ 13/ 15   N/A
CHES BAY BRIDGE  1900   63 65  290/ 10/ 11 1012.4F
CHESAPEAKE LGHT  1800   61     310/ 16/ 19 1013.6F
WILLOUBY STN VA  1900   63     270/ 15/ 17 1011.6F
S CRANEY ISL VA  1900          270/  6/ 11 1012.9S
CAPE HENRY BUOY  1900      67                N/A     4/ 7
1ST LANDING BUOY 1900   63     300/ 12/ 14 1012.7F
CAPE CHARLES BUO 1900      66                N/A     3/ 6   2/ 6
64NM E OF VA BCH 1900   61 67  310/ 16/ 17 1011.9F   6/ 6   3/ 8
DUCK PIER NC     1900   63 66  310/  5/  7 1012.4F
44100 DUCK FRF   1900      68                N/A     5/ 6   2/11
44056 DUCK FRF   1900                        N/A     4/ 7
OREGON INLET NC  1900   63 63  300/  8/ 11 1013.3F
HATTERAS NC      1900   63 64  320/  7/ 10 1014.3S
DIAMOND SHLS NC  1900   62     310/ 10/ 16 1014.3F   4/ 9   3/ 9
CAPE LOOKOUT NC  1800   65     320/  4/  6 1015.1F
$$



USA.gov is the U.S. government's official web portal to all federal, state and local government web resources and services.